Regional Weather Roundup
Issued by NWS

Home | Current Version | Previous Version | Text Only | Print | Product List | Glossary Off
Versions: 1 2 3 4 5 6 7 8 9 10 11 12 13 14 15 16 17 18 19 20 21 22 23 24 25 26 27 28 29 30 31 32 33 34 35 36 37 38 39 40 41 42 43 44 45 46 47 48 49 50

000
ASUS43 KDTX 232110
RWRMI
MICHIGAN HOURLY REGIONAL WEATHER ROUNDUP
NATIONAL WEATHER SERVICE DETROIT/PONTIAC MI
ISSUED BY NATIONAL WEATHER SERVICE GRAND RAPIDS MI
500 PM EDT WED AUG 23 2017

NOTE: "FAIR" INDICATES FEW OR NO CLOUDS BELOW 12,000 FEET WITH NO
SIGNIFICANT WEATHER AND/OR OBSTRUCTION TO VISIBILITY.

MIZ047>049-052>055-059>063-066>070-074>076-081>083-232200-
SOUTHEAST LOWER MICHIGAN

CITY           SKY/WX    TMP DP  RH WIND       PRES   REMARKS
ADRIAN         MOSUNNY   74  49  41 NW9       29.96F
ALMA           PTSUNNY   71  48  44 NW14G21   29.96S
ANN ARBOR      PTSUNNY   76  49  38 W9        29.95S
BAD AXE        MOSUNNY   69  48  47 NW10G16   29.95R
DETROIT CITY   CLOUDY    75  47  36 NW9       29.94S
DETROIT        MOSUNNY   75  50  41 W13       29.94F
FLINT          CLOUDY    70  53  54 NW10      29.95S
GROSSE ILE     MOSUNNY   76  49  38 NW13G18   29.93S
HILLSDALE      PTSUNNY   73  48  40 W15G22    29.97S
HOWELL         MOSUNNY   71  49  46 W13       29.96S

CITY           SKY/WX    TMP DP  RH WIND       PRES   REMARKS
JACKSON        MOSUNNY   73  49  42 NW12G18   29.96F
LANSING        PTSUNNY   71  51  49 NW13      29.97S
MASON          MOSUNNY   75  50  41 NW12      29.96S
MONROE         PTSUNNY   75  52  44 N9        29.93F
MT. CLEMENS    MOSUNNY   72  53  51 N6        29.93S
PONTIAC        PTSUNNY   74  49  41 W15       29.94F
PORT HOPE        N/A     70  53  54 MISG      29.93R
PORT HURON     CLOUDY    73  52  46 NW6       29.94S
TRI CITIES     PTSUNNY   71  54  54 NW10      29.96R
YPSILANTI      MOSUNNY   78  52  40 NW12      29.95S
$$
MIZ043>046-050>051-056>058-064>065-071>073-077>080-232200-
SOUTHWEST LOWER MICHIGAN

CITY           SKY/WX    TMP DP  RH WIND       PRES   REMARKS
BATTLE CREEK   MOSUNNY   73  50  44 NW14      30.00R
BENTON HARBOR  MOSUNNY   71  53  52 NW8       30.02F
BIG RAPIDS     SUNNY     67  45  45 NW15G23   29.99S
COLDWATER      PTSUNNY   74  47  38 W14G20    29.99R
HOLLAND        SUNNY     69  52  54 NW10      30.02F
GRAND RAPIDS   MOSUNNY   73  52  47 W17G24    29.98S
KALAMAZOO      MOSUNNY   73  47  39 W16       30.00S
MARSHALL       MOSUNNY   71  48  43 NW10G17   29.97S
MOUNT PLEASANT MOSUNNY   71  49  44 W8        29.96S
MUSKEGON       MOSUNNY   71  52  50 NW14G22   30.01S
STURGIS        MOSUNNY   71  53  51 NW9       29.99S
$$
MIZ016>042-232200-
NORTHERN LOWER MICHIGAN

CITY           SKY/WX    TMP DP  RH WIND       PRES   REMARKS
BEAVER ISLAND  MOSUNNY   64  48  56 NW13      30.00F
BELLAIRE       PTSUNNY   63  47  55 NW6       30.00S
CADILLAC       MOSUNNY   67  41  38 NW12G20   30.00S
CHARLEVOIX     MOSUNNY   64  50  61 NW12G18   30.03S
GAYLORD        PTSUNNY   61  46  57 W9        29.99R
HOUGHTON LAKE  PTSUNNY   66  44  45 N13G20    29.99S
MANISTEE       SUNNY     67  50  54 NW5       30.01S
OSCODA         PTSUNNY   69  44  40 NW12G20   29.93S
PELLSTON       PTSUNNY   62  50  64 NW16      29.99S
TRAVERSE CITY  PTSUNNY   65  50  58 N9        29.99S
LUDINGTON      MOSUNNY   67  50  54 NW10G16   30.01S
$$
MIZ007>008-015-232200-
EASTERN UPPER MICHIGAN

CITY           SKY/WX    TMP DP  RH WIND       PRES   REMARKS
KINROSS        CLOUDY    57  49  74 NW15G21   29.98R
MACKINAC ISLAN CLOUDY    59  50  73 NW9G18    29.98S
NEWBERRY       PTSUNNY   57  49  73 NW9       29.99F
S. S. MARIE    CLOUDY    58  49  72 NW17G23   29.96R
$$
MIZ004>006-011>014-085-232200-
CENTRAL UPPER MICHIGAN

CITY           SKY/WX    TMP DP  RH WIND       PRES   REMARKS
MANISTIQUE     PTSUNNY   63  40  43 N10G21    30.00S
ESCANABA       SUNNY     68  43  40 N10G17    29.99F
MENOMINEE      MOSUNNY   70  47  43 N10       30.00S
SAWYER-GWINN   MOSUNNY   61  43  51 NE16G22   30.03R
$$
MIZ001>003-009>011-084-232200-
WESTERN UPPER MICHIGAN

CITY           SKY/WX    TMP DP  RH WIND       PRES   REMARKS
IRON MOUNTAIN  MOSUNNY   67  40  37 NW15      30.01R
HOUGHTON       SUNNY     60  38  43 NW15G22   30.04F
COPPER HARBOR    N/A     60  47  61 N14       30.04R
IRONWOOD       SUNNY     60  41  49 VRB6      30.09S
$$

ABBREVIATIONS USED IN REMARKS
   TC - TEMPERATURE IN CELSIUS
  WCI - WIND CHILL INDEX
   HX - HEAT INDEX
  VSB - VISIBILITY




USA.gov is the U.S. government's official web portal to all federal, state and local government web resources and services.